sat.trackr.live / text

‹ back to catalog

STARLINK-3298

NORAD 50165 · 2021-125K

PAYLOAD ACTIVE UNKNOWN

§ Identity

Operator
Country
US
Launch date
2021-12-18
Launch site
AFWTR
Launch vehicle
Mass (kg)
RCS (m²)

Purposes: comms

External: N2YO · Heavens-Above · Gunter

§ Orbital elements

Epoch: 2026-09-19T22:10:08.181120Z

Period
93.85 min
Inclination
53.1597°
Eccentricity
0.0001138
Mean motion
15.34393577 rev/d
Perigee alt
461.9 km
Apogee alt
463.5 km
Semi-major
6,840.9 km
B*
1.1242e-5
RAAN
94.0631°
Arg perigee
92.7776°
Mean anomaly
267.3357°
Rev number
26,600

§ Raw data

STARLINK-32981 50165U 21125K   26262.92370580  .00000004  00000+0  11242-4 0  99972 50165  53.1597  94.0631 0001138  92.7776 267.3357 15.34393577266007

JSON: /api/v1/satellites/50165 · /tle

For live sub-satellite position, see the globe view (requires WebGL).

§ Visibility from observer

Set your observer location to see the next 7 days of passes ≥ 10°. The values pass through the URL so the page stays shareable.

No JS? Fill the form by hand. The geolocation button needs JavaScript.